Time,TemperatureF,DewpointF,PressureIn,WindDirection,WindDirectionDegrees,WindSpeedMPH,WindSpeedGustMPH,Humidity,HourlyPrecipIn,Conditions,Clouds,dailyrainin,SoftwareType,DateUTC
2013-03-13 00:00:00,31.9,25.8,29.91,NNW,337,10.0,14.0,78,0.00,,---,0.34,VWS V14.01,2013-03-13 04:00:00,
2013-03-13 00:01:00,31.9,25.8,29.91,NE,49,4.0,10.0,78,0.00,,---,0.00,VWS V14.01,2013-03-13 04:01:00,
2013-03-13 00:06:00,31.9,25.8,29.92,NNE,33,6.0,13.0,78,0.00,,---,0.00,VWS V14.01,2013-03-13 04:06:00,
2013-03-13 00:11:00,31.9,25.8,29.92,NNW,345,10.0,12.0,78,0.00,,---,0.00,VWS V14.01,2013-03-13 04:11:00,
2013-03-13 00:17:00,31.9,25.8,29.92,North,351,10.0,13.0,78,0.00,,---,0.00,VWS V14.01,2013-03-13 04:17:00,
2013-03-13 00:22:00,32.0,25.9,29.93,North,5,6.0,14.0,78,0.00,,---,0.00,VWS V14.01,2013-03-13 04:22:00,
2013-03-13 00:27:00,32.0,25.9,29.93,North,355,6.0,14.0,78,0.00,,---,0.00,VWS V14.01,2013-03-13 04:27:00,
2013-03-13 00:32:00,32.0,26.2,29.93,North,355,10.0,10.0,79,0.00,,---,0.00,VWS V14.01,2013-03-13 04:32:00,
2013-03-13 00:37:00,32.1,26.3,29.92,North,355,4.0,11.0,79,0.00,,---,0.00,VWS V14.01,2013-03-13 04:37:00,
2013-03-13 00:42:00,32.1,26.3,29.92,North,5,6.0,10.0,79,0.00,,---,0.00,VWS V14.01,2013-03-13 04:42:00,
2013-03-13 00:47:00,32.2,26.4,29.92,WNW,300,8.0,11.0,79,0.00,,---,0.00,VWS V14.01,2013-03-13 04:47:00,
2013-03-13 00:52:00,32.3,26.5,29.92,NNE,22,4.0,8.0,79,0.00,,---,0.00,VWS V14.01,2013-03-13 04:52:00,
2013-03-13 00:57:00,32.3,26.5,29.92,NE,54,3.0,11.0,79,0.00,,---,0.00,VWS V14.01,2013-03-13 04:57:00,
2013-03-13 01:02:00,32.3,26.5,29.92,North,5,3.0,10.0,79,0.00,,---,0.00,VWS V14.01,2013-03-13 05:02:00,
2013-03-13 01:07:00,32.3,26.5,29.92,NNW,341,10.0,12.0,79,0.00,,---,0.00,VWS V14.01,2013-03-13 05:07:00,
2013-03-13 01:12:00,32.3,26.2,29.92,NNW,341,7.0,10.0,78,0.00,,---,0.00,VWS V14.01,2013-03-13 05:12:00,
2013-03-13 01:17:00,32.3,26.2,29.92,NNW,346,12.0,14.0,78,0.00,,---,0.00,VWS V14.01,2013-03-13 05:17:00,
2013-03-13 01:22:00,32.3,25.9,29.91,North,360,9.0,15.0,77,0.00,,---,0.00,VWS V14.01,2013-03-13 05:22:00,
2013-03-13 01:27:00,32.2,25.5,29.91,NNW,328,5.0,16.0,76,0.00,,---,0.00,VWS V14.01,2013-03-13 05:27:00,
2013-03-13 01:33:00,32.1,25.1,29.91,North,355,8.0,11.0,75,0.00,,---,0.00,VWS V14.01,2013-03-13 05:33:00,
2013-03-13 01:38:00,32.0,24.3,29.90,NW,324,7.0,15.0,73,0.00,,---,0.00,VWS V14.01,2013-03-13 05:38:00,
2013-03-13 01:43:00,32.0,24.0,29.91,NNE,26,8.0,12.0,72,0.00,,---,0.00,VWS V14.01,2013-03-13 05:43:00,
2013-03-13 01:48:00,31.9,23.9,29.90,NNW,348,13.0,17.0,72,0.00,,---,0.00,VWS V14.01,2013-03-13 05:48:00,
2013-03-13 01:53:00,31.8,23.5,29.90,North,351,8.0,17.0,71,0.00,,---,0.00,VWS V14.01,2013-03-13 05:53:00,
2013-03-13 01:58:00,31.7,23.4,29.92,NNW,340,12.0,17.0,71,0.00,,---,0.00,VWS V14.01,2013-03-13 05:58:00,
2013-03-13 02:03:00,31.6,23.6,29.92,North,355,10.0,12.0,72,0.00,,---,0.00,VWS V14.01,2013-03-13 06:03:00,
2013-03-13 02:08:00,31.4,23.4,29.92,NNE,26,4.0,12.0,72,0.00,,---,0.00,VWS V14.01,2013-03-13 06:08:00,
2013-03-13 02:13:00,31.2,23.2,29.92,NNE,13,5.0,11.0,72,0.00,,---,0.00,VWS V14.01,2013-03-13 06:13:00,
2013-03-13 02:18:00,31.1,23.1,29.92,West,267,5.0,12.0,72,0.00,,---,0.00,VWS V14.01,2013-03-13 06:18:00,
2013-03-13 02:23:00,31.0,23.4,29.92,North,350,7.0,10.0,73,0.00,,---,0.00,VWS V14.01,2013-03-13 06:23:00,
2013-03-13 02:28:00,31.0,23.0,29.92,NNW,331,5.0,10.0,72,0.00,,---,0.00,VWS V14.01,2013-03-13 06:28:00,
2013-03-13 02:33:00,31.0,23.4,29.91,North,355,10.0,11.0,73,0.00,,---,0.00,VWS V14.01,2013-03-13 06:33:00,
2013-03-13 02:38:00,31.0,23.4,29.91,NNW,347,8.0,11.0,73,0.00,,---,0.00,VWS V14.01,2013-03-13 06:38:00,
2013-03-13 02:43:00,30.8,23.2,29.91,NNW,329,10.0,11.0,73,0.00,,---,0.00,VWS V14.01,2013-03-13 06:43:00,
2013-03-13 02:48:00,30.8,23.2,29.91,North,5,3.0,11.0,73,0.00,,---,0.00,VWS V14.01,2013-03-13 06:48:00,
2013-03-13 02:53:00,30.7,23.1,29.91,North,355,6.0,7.0,73,0.00,,---,0.00,VWS V14.01,2013-03-13 06:53:00,
2013-03-13 02:59:00,30.6,23.0,29.91,North,355,6.0,8.0,73,0.00,,---,0.00,VWS V14.01,2013-03-13 06:59:00,
2013-03-13 03:04:00,30.6,23.0,29.91,NNW,348,4.0,9.0,73,0.00,,---,0.00,VWS V14.01,2013-03-13 07:04:00,
2013-03-13 03:09:00,30.6,23.0,29.91,NNW,330,7.0,9.0,73,0.00,,---,0.00,VWS V14.01,2013-03-13 07:09:00,
2013-03-13 03:14:00,30.6,23.0,29.91,NNW,338,3.0,9.0,73,0.00,,---,0.00,VWS V14.01,2013-03-13 07:14:00,
2013-03-13 03:19:00,30.6,23.0,29.91,NNE,16,6.0,9.0,73,0.00,,---,0.00,VWS V14.01,2013-03-13 07:19:00,
2013-03-13 03:24:00,30.6,23.0,29.91,North,360,5.0,9.0,73,0.00,,---,0.00,VWS V14.01,2013-03-13 07:24:00,
2013-03-13 03:29:00,30.6,23.0,29.91,NNW,340,8.0,9.0,73,0.00,,---,0.00,VWS V14.01,2013-03-13 07:29:00,
2013-03-13 03:34:00,30.6,23.0,29.91,NNW,333,3.0,7.0,73,0.00,,---,0.00,VWS V14.01,2013-03-13 07:34:00,
2013-03-13 03:39:00,30.6,22.7,29.91,WNW,296,11.0,11.0,72,0.00,,---,0.00,VWS V14.01,2013-03-13 07:39:00,
2013-03-13 03:44:00,30.6,22.7,29.90,NNW,347,8.0,12.0,72,0.00,,---,0.00,VWS V14.01,2013-03-13 07:44:00,
2013-03-13 03:49:00,30.6,22.7,29.90,NNW,345,8.0,12.0,72,0.00,,---,0.00,VWS V14.01,2013-03-13 07:49:00,
2013-03-13 03:54:00,30.6,23.0,29.90,NNW,336,8.0,11.0,73,0.00,,---,0.00,VWS V14.01,2013-03-13 07:54:00,
2013-03-13 03:59:00,30.6,22.7,29.90,NNW,340,6.0,11.0,72,0.00,,---,0.00,VWS V14.01,2013-03-13 07:59:00,
2013-03-13 04:04:00,30.6,22.7,29.90,NNW,348,4.0,9.0,72,0.00,,---,0.00,VWS V14.01,2013-03-13 08:04:00,
2013-03-13 04:10:00,30.5,22.9,29.90,NNW,348,3.0,9.0,73,0.00,,---,0.00,VWS V14.01,2013-03-13 08:10:00,
2013-03-13 04:15:00,30.3,22.7,29.89,NNE,12,6.0,9.0,73,0.00,,---,0.00,VWS V14.01,2013-03-13 08:15:00,
2013-03-13 04:20:00,30.2,22.6,29.89,North,5,7.0,10.0,73,0.00,,---,0.00,VWS V14.01,2013-03-13 08:20:00,
2013-03-13 04:25:00,30.1,22.8,29.88,NNW,344,7.0,9.0,74,0.00,,---,0.00,VWS V14.01,2013-03-13 08:25:00,
2013-03-13 04:30:00,30.0,22.7,29.88,NNW,344,6.0,9.0,74,0.00,,---,0.00,VWS V14.01,2013-03-13 08:30:00,
2013-03-13 04:35:00,30.1,22.8,29.88,North,5,5.0,7.0,74,0.00,,---,0.00,VWS V14.01,2013-03-13 08:35:00,
2013-03-13 04:40:00,30.2,22.9,29.89,North,355,6.0,10.0,74,0.00,,---,0.00,VWS V14.01,2013-03-13 08:40:00,
2013-03-13 04:45:00,30.2,22.9,29.90,NNW,340,2.0,7.0,74,0.00,,---,0.00,VWS V14.01,2013-03-13 08:45:00,
2013-03-13 04:50:00,30.2,22.9,29.90,NNW,341,4.0,7.0,74,0.00,,---,0.00,VWS V14.01,2013-03-13 08:50:00,
2013-03-13 04:55:00,30.3,23.0,29.90,North,355,5.0,7.0,74,0.00,,---,0.00,VWS V14.01,2013-03-13 08:55:00,
2013-03-13 05:00:00,30.3,23.3,29.90,South,181,7.0,8.0,75,0.00,,---,0.00,VWS V14.01,2013-03-13 09:00:00,
2013-03-13 05:05:00,30.3,23.3,29.90,NNE,15,3.0,9.0,75,0.00,,---,0.00,VWS V14.01,2013-03-13 09:05:00,
2013-03-13 05:10:00,30.4,23.4,29.90,North,5,2.0,9.0,75,0.00,,---,0.00,VWS V14.01,2013-03-13 09:10:00,
2013-03-13 05:15:00,30.4,23.4,29.90,NNW,342,4.0,6.0,75,0.00,,---,0.00,VWS V14.01,2013-03-13 09:15:00,
2013-03-13 05:20:00,30.3,23.3,29.90,NNW,333,3.0,8.0,75,0.00,,---,0.00,VWS V14.01,2013-03-13 09:20:00,
2013-03-13 05:26:00,30.2,23.2,29.91,North,5,2.0,6.0,75,0.00,,---,0.00,VWS V14.01,2013-03-13 09:26:00,
2013-03-13 05:31:00,30.2,23.2,29.91,North,349,3.0,6.0,75,0.00,,---,0.00,VWS V14.01,2013-03-13 09:31:00,
2013-03-13 05:36:00,30.2,23.2,29.91,NW,321,3.0,6.0,75,0.00,,---,0.00,VWS V14.01,2013-03-13 09:36:00,
2013-03-13 05:41:00,30.1,23.5,29.92,NNW,338,5.0,7.0,76,0.00,,---,0.00,VWS V14.01,2013-03-13 09:41:00,
2013-03-13 05:46:00,30.4,24.1,29.92,NNW,333,7.0,9.0,77,0.00,,---,0.00,VWS V14.01,2013-03-13 09:46:00,
2013-03-13 05:52:00,30.9,24.5,29.92,WNW,292,5.0,8.0,77,0.00,,---,0.00,VWS V14.01,2013-03-13 09:52:00,
2013-03-13 05:57:00,31.3,24.6,29.92,NNW,338,7.0,8.0,76,0.00,,---,0.00,VWS V14.01,2013-03-13 09:57:00,
2013-03-13 06:02:00,31.5,24.8,29.92,NW,323,5.0,8.0,76,0.00,,---,0.00,VWS V14.01,2013-03-13 10:02:00,
2013-03-13 06:07:00,31.6,24.9,29.92,NNW,339,4.0,8.0,76,0.00,,---,0.00,VWS V14.01,2013-03-13 10:07:00,
2013-03-13 06:12:00,31.7,25.0,29.92,NW,322,5.0,6.0,76,0.00,,---,0.00,VWS V14.01,2013-03-13 10:12:00,
2013-03-13 06:17:00,31.7,25.0,29.92,NNW,336,4.0,8.0,76,0.00,,---,0.00,VWS V14.01,2013-03-13 10:17:00,
2013-03-13 06:22:00,31.3,24.9,29.92,NNW,342,4.0,6.0,77,0.00,,---,0.00,VWS V14.01,2013-03-13 10:22:00,
2013-03-13 06:27:00,31.0,25.0,29.93,NNW,339,5.0,6.0,78,0.00,,---,0.00,VWS V14.01,2013-03-13 10:27:00,
2013-03-13 06:32:00,30.7,25.0,29.93,NNW,336,4.0,6.0,79,0.00,,---,0.00,VWS V14.01,2013-03-13 10:32:00,
2013-03-13 06:37:00,30.5,25.1,29.93,North,360,1.0,7.0,80,0.00,,---,0.00,VWS V14.01,2013-03-13 10:37:00,
2013-03-13 06:42:00,30.4,25.0,29.93,West,267,4.0,8.0,80,0.00,,---,0.00,VWS V14.01,2013-03-13 10:42:00,
2013-03-13 06:48:00,30.5,25.4,29.93,NW,311,6.0,9.0,81,0.00,,---,0.00,VWS V14.01,2013-03-13 10:48:00,
2013-03-13 06:53:00,30.6,25.5,29.93,NNW,336,8.0,8.0,81,0.00,,---,0.00,VWS V14.01,2013-03-13 10:53:00,
2013-03-13 06:58:00,30.5,25.4,29.93,NNW,331,7.0,9.0,81,0.00,,---,0.00,VWS V14.01,2013-03-13 10:58:00,
2013-03-13 07:03:00,30.3,25.5,29.93,NNW,336,5.0,8.0,82,0.00,,---,0.00,VWS V14.01,2013-03-13 11:03:00,
2013-03-13 07:08:00,30.2,25.7,29.93,North,355,2.0,8.0,83,0.00,,---,0.00,VWS V14.01,2013-03-13 11:08:00,
2013-03-13 07:13:00,30.2,26.0,29.93,NNW,337,4.0,8.0,84,0.00,,---,0.00,VWS V14.01,2013-03-13 11:13:00,
2013-03-13 07:18:00,30.3,25.8,29.93,NNW,336,4.0,11.0,83,0.00,,---,0.00,VWS V14.01,2013-03-13 11:18:00,
2013-03-13 07:23:00,30.3,25.8,29.93,NNW,332,3.0,8.0,83,0.00,,---,0.00,VWS V14.01,2013-03-13 11:23:00,
2013-03-13 07:28:00,30.3,25.8,29.93,NNW,338,6.0,8.0,83,0.00,,---,0.00,VWS V14.01,2013-03-13 11:28:00,
2013-03-13 07:34:00,30.2,26.0,29.93,North,351,4.0,8.0,84,0.00,,---,0.00,VWS V14.01,2013-03-13 11:34:00,
2013-03-13 07:39:00,30.3,25.8,29.93,North,355,7.0,10.0,83,0.00,,---,0.00,VWS V14.01,2013-03-13 11:39:00,
2013-03-13 07:44:00,30.4,25.6,29.93,NNW,338,5.0,10.0,82,0.00,,---,0.00,VWS V14.01,2013-03-13 11:44:00,
2013-03-13 07:49:00,30.4,25.6,29.93,NNW,346,4.0,10.0,82,0.00,,---,0.00,VWS V14.01,2013-03-13 11:49:00,
2013-03-13 07:54:00,30.3,25.5,29.93,North,355,5.0,8.0,82,0.00,,---,0.00,VWS V14.01,2013-03-13 11:54:00,
2013-03-13 07:59:00,30.3,25.8,29.93,NNW,333,4.0,8.0,83,0.00,,---,0.00,VWS V14.01,2013-03-13 11:59:00,
2013-03-13 08:04:00,30.3,25.8,29.93,NNW,346,5.0,7.0,83,0.00,,---,0.00,VWS V14.01,2013-03-13 12:04:00,
2013-03-13 08:09:00,30.4,25.9,29.94,North,355,3.0,8.0,83,0.00,,---,0.00,VWS V14.01,2013-03-13 12:09:00,
2013-03-13 08:14:00,30.5,26.0,29.94,SSE,161,2.0,7.0,83,0.00,,---,0.00,VWS V14.01,2013-03-13 12:14:00,
2013-03-13 08:19:00,30.8,26.0,29.94,NNW,333,4.0,8.0,82,0.00,,---,0.00,VWS V14.01,2013-03-13 12:19:00,
2013-03-13 08:24:00,30.9,26.1,29.94,North,355,3.0,8.0,82,0.00,,---,0.00,VWS V14.01,2013-03-13 12:24:00,
2013-03-13 08:29:00,31.2,26.1,29.94,NNW,336,5.0,8.0,81,0.00,,---,0.00,VWS V14.01,2013-03-13 12:29:00,
2013-03-13 08:35:00,31.4,26.0,29.94,North,360,3.0,6.0,80,0.00,,---,0.00,VWS V14.01,2013-03-13 12:35:00,
2013-03-13 08:40:00,31.5,26.0,29.94,NNW,346,5.0,7.0,80,0.00,,---,0.00,VWS V14.01,2013-03-13 12:40:00,
2013-03-13 08:45:00,31.7,25.9,29.94,NW,323,4.0,8.0,79,0.00,,---,0.00,VWS V14.01,2013-03-13 12:45:00,
2013-03-13 08:50:00,32.0,25.9,29.94,NNW,328,5.0,8.0,78,0.00,,---,0.00,VWS V14.01,2013-03-13 12:50:00,
2013-03-13 08:55:00,32.2,26.1,29.94,NNE,26,2.0,6.0,78,0.00,,---,0.00,VWS V14.01,2013-03-13 12:55:00,
2013-03-13 09:00:00,32.4,25.7,29.94,NW,317,5.0,6.0,76,0.00,,---,0.00,VWS V14.01,2013-03-13 13:00:00,
2013-03-13 09:05:00,32.7,26.0,29.94,North,349,1.0,6.0,76,0.00,,---,0.00,VWS V14.01,2013-03-13 13:05:00,
2013-03-13 09:10:00,33.0,26.3,29.94,NNW,344,2.0,6.0,76,0.00,,---,0.00,VWS V14.01,2013-03-13 13:10:00,
2013-03-13 09:15:00,33.3,26.6,29.94,NNW,334,7.0,7.0,76,0.00,,---,0.00,VWS V14.01,2013-03-13 13:15:00,
2013-03-13 09:20:00,33.3,26.6,29.94,NNW,329,3.0,9.0,76,0.00,,---,0.00,VWS V14.01,2013-03-13 13:20:00,
2013-03-13 09:25:00,33.8,27.4,29.94,SSW,208,1.0,7.0,77,0.00,,---,0.00,VWS V14.01,2013-03-13 13:25:00,
2013-03-13 09:30:00,34.4,27.3,29.94,WSW,240,3.0,7.0,75,0.00,,---,0.00,VWS V14.01,2013-03-13 13:30:00,
2013-03-13 09:35:00,34.6,26.9,29.94,North,360,3.0,9.0,73,0.00,,---,0.00,VWS V14.01,2013-03-13 13:35:00,
2013-03-13 09:40:00,34.7,27.0,29.93,South,171,2.0,11.0,73,0.00,,---,0.00,VWS V14.01,2013-03-13 13:40:00,
2013-03-13 09:46:00,35.5,27.4,29.94,NNW,346,1.0,7.0,72,0.00,,---,0.00,VWS V14.01,2013-03-13 13:46:00,
2013-03-13 09:51:00,36.0,28.5,29.94,SSW,211,1.0,2.0,74,0.00,,---,0.00,VWS V14.01,2013-03-13 13:51:00,
2013-03-13 09:56:00,36.7,26.4,29.94,SW,222,2.0,9.0,66,0.00,,---,0.00,VWS V14.01,2013-03-13 13:56:00,
2013-03-13 10:01:00,36.6,26.7,29.94,NNW,346,1.0,2.0,67,0.00,,---,0.00,VWS V14.01,2013-03-13 14:01:00,
2013-03-13 10:06:00,37.2,25.8,29.94,West,261,3.0,10.0,63,0.00,,---,0.00,VWS V14.01,2013-03-13 14:06:00,
2013-03-13 10:11:00,37.2,26.2,29.94,West,263,0.0,3.0,64,0.00,,---,0.00,VWS V14.01,2013-03-13 14:11:00,
2013-03-13 10:16:00,36.2,26.3,29.93,North,11,4.0,8.0,67,0.00,,---,0.00,VWS V14.01,2013-03-13 14:16:00,
2013-03-13 10:21:00,34.4,26.3,29.94,NNW,329,5.0,5.0,72,0.00,,---,0.00,VWS V14.01,2013-03-13 14:21:00,
2013-03-13 10:26:00,33.7,26.0,29.94,SSE,155,2.0,11.0,73,0.00,,---,0.00,VWS V14.01,2013-03-13 14:26:00,
2013-03-13 10:31:00,32.8,26.1,29.95,West,266,1.0,7.0,76,0.00,,---,0.00,VWS V14.01,2013-03-13 14:31:00,
2013-03-13 10:37:00,31.9,26.4,29.95,North,351,8.0,13.0,80,0.00,,---,0.00,VWS V14.01,2013-03-13 14:37:00,
2013-03-13 10:42:00,31.0,27.0,29.95,NNW,343,4.0,9.0,85,0.00,,---,0.00,VWS V14.01,2013-03-13 14:42:00,
2013-03-13 10:47:00,31.5,28.1,29.95,NNE,19,10.0,11.0,87,0.00,,---,0.00,VWS V14.01,2013-03-13 14:47:00,
2013-03-13 10:52:00,32.1,27.2,29.95,North,360,6.0,11.0,82,0.00,,---,0.00,VWS V14.01,2013-03-13 14:52:00,
2013-03-13 10:57:00,33.4,27.3,29.94,North,355,3.0,11.0,78,0.00,,---,0.00,VWS V14.01,2013-03-13 14:57:00,
2013-03-13 11:02:00,34.2,25.5,29.95,SW,216,4.0,13.0,70,0.00,,---,0.00,VWS V14.01,2013-03-13 15:02:00,
2013-03-13 11:07:00,34.2,23.3,29.95,NNW,346,7.0,17.0,64,0.00,,---,0.00,VWS V14.01,2013-03-13 15:07:00,
2013-03-13 11:12:00,35.3,25.8,29.95,WSW,245,3.0,8.0,68,0.00,,---,0.00,VWS V14.01,2013-03-13 15:12:00,
2013-03-13 11:17:00,35.9,23.8,29.95,SW,223,3.0,8.0,61,0.00,,---,0.00,VWS V14.01,2013-03-13 15:17:00,
2013-03-13 11:22:00,36.3,24.1,29.95,WSW,250,7.0,7.0,61,0.00,,---,0.00,VWS V14.01,2013-03-13 15:22:00,
2013-03-13 11:27:00,36.7,23.3,29.95,WSW,252,1.0,9.0,58,0.00,,---,0.00,VWS V14.01,2013-03-13 15:27:00,
2013-03-13 11:32:00,36.9,22.7,29.94,NNE,15,3.0,8.0,56,0.00,,---,0.00,VWS V14.01,2013-03-13 15:32:00,
2013-03-13 11:38:00,37.1,22.4,29.95,South,171,2.0,8.0,55,0.00,,---,0.00,VWS V14.01,2013-03-13 15:38:00,
2013-03-13 11:43:00,37.9,22.3,29.95,North,349,2.0,7.0,53,0.00,,---,0.00,VWS V14.01,2013-03-13 15:43:00,
2013-03-13 11:48:00,38.4,22.3,29.95,NNW,348,3.0,8.0,52,0.00,,---,0.00,VWS V14.01,2013-03-13 15:48:00,
2013-03-13 11:53:00,38.7,22.6,29.94,North,5,3.0,8.0,52,0.00,,---,0.00,VWS V14.01,2013-03-13 15:53:00,
2013-03-13 11:58:00,37.3,19.9,29.94,SW,225,3.0,12.0,49,0.00,,---,0.00,VWS V14.01,2013-03-13 15:58:00,
2013-03-13 12:03:00,37.3,20.4,29.94,NNW,335,6.0,7.0,50,0.00,,---,0.00,VWS V14.01,2013-03-13 16:03:00,
2013-03-13 12:08:00,37.1,20.7,29.94,North,5,1.0,8.0,51,0.00,,---,0.00,VWS V14.01,2013-03-13 16:08:00,
2013-03-13 12:13:00,37.1,19.7,29.94,NNE,19,4.0,10.0,49,0.00,,---,0.00,VWS V14.01,2013-03-13 16:13:00,
2013-03-13 12:18:00,37.2,19.3,29.94,SSE,165,4.0,10.0,48,0.00,,---,0.00,VWS V14.01,2013-03-13 16:18:00,
2013-03-13 12:23:00,36.8,19.0,29.94,SW,218,7.0,11.0,48,0.00,,---,0.00,VWS V14.01,2013-03-13 16:23:00,
2013-03-13 12:29:00,36.3,18.5,29.94,North,355,4.0,11.0,48,0.00,,---,0.00,VWS V14.01,2013-03-13 16:29:00,
2013-03-13 12:34:00,36.0,20.5,29.94,WSW,256,2.0,11.0,53,0.00,,---,0.00,VWS V14.01,2013-03-13 16:34:00,
2013-03-13 12:39:00,36.4,18.1,29.94,NNW,342,13.0,13.0,47,0.00,,---,0.00,VWS V14.01,2013-03-13 16:39:00,
2013-03-13 12:44:00,35.8,17.6,29.94,NNW,338,2.0,11.0,47,0.00,,---,0.00,VWS V14.01,2013-03-13 16:44:00,
2013-03-13 12:49:00,35.9,18.6,29.94,NW,326,5.0,11.0,49,0.00,,---,0.00,VWS V14.01,2013-03-13 16:49:00,
2013-03-13 12:54:00,36.2,18.9,29.94,WNW,298,2.0,7.0,49,0.00,,---,0.00,VWS V14.01,2013-03-13 16:54:00,
2013-03-13 12:59:00,36.5,18.7,29.94,WSW,240,1.0,12.0,48,0.00,,---,0.00,VWS V14.01,2013-03-13 16:59:00,
2013-03-13 13:04:00,36.4,19.5,29.93,NE,50,1.0,12.0,50,0.00,,---,0.00,VWS V14.01,2013-03-13 17:04:00,
2013-03-13 13:09:00,36.3,19.0,29.93,North,355,6.0,12.0,49,0.00,,---,0.00,VWS V14.01,2013-03-13 17:09:00,
2013-03-13 13:14:00,36.2,18.4,29.93,NNW,342,7.0,13.0,48,0.00,,---,0.00,VWS V14.01,2013-03-13 17:14:00,
2013-03-13 13:19:00,36.2,19.4,29.93,NNW,329,5.0,13.0,50,0.00,,---,0.00,VWS V14.01,2013-03-13 17:19:00,
2013-03-13 13:24:00,36.4,19.1,29.94,NE,38,4.0,10.0,49,0.00,,---,0.00,VWS V14.01,2013-03-13 17:24:00,
2013-03-13 13:29:00,36.4,19.5,29.94,North,9,6.0,10.0,50,0.00,,---,0.00,VWS V14.01,2013-03-13 17:29:00,
2013-03-13 13:34:00,36.4,20.0,29.93,South,188,2.0,10.0,51,0.00,,---,0.00,VWS V14.01,2013-03-13 17:34:00,
2013-03-13 13:39:00,36.6,19.3,29.93,South,191,2.0,10.0,49,0.00,,---,0.00,VWS V14.01,2013-03-13 17:39:00,
2013-03-13 13:44:00,36.7,19.8,29.93,West,279,5.0,12.0,50,0.00,,---,0.00,VWS V14.01,2013-03-13 17:44:00,
2013-03-13 13:49:00,37.3,20.9,29.93,SW,223,3.0,16.0,51,0.00,,---,0.00,VWS V14.01,2013-03-13 17:49:00,
2013-03-13 13:54:00,37.5,20.6,29.94,SW,230,4.0,11.0,50,0.00,,---,0.00,VWS V14.01,2013-03-13 17:54:00,
2013-03-13 14:00:00,37.7,20.8,29.93,West,268,5.0,11.0,50,0.00,,---,0.00,VWS V14.01,2013-03-13 18:00:00,
2013-03-13 14:05:00,37.8,20.8,29.93,WSW,257,3.0,9.0,50,0.00,,---,0.00,VWS V14.01,2013-03-13 18:05:00,
2013-03-13 14:10:00,38.7,21.7,29.93,North,355,3.0,9.0,50,0.00,,---,0.00,VWS V14.01,2013-03-13 18:10:00,
2013-03-13 14:15:00,39.5,22.9,29.93,WSW,255,2.0,9.0,51,0.00,,---,0.00,VWS V14.01,2013-03-13 18:15:00,
2013-03-13 14:20:00,39.2,20.7,29.92,NW,323,4.0,12.0,47,0.00,,---,0.00,VWS V14.01,2013-03-13 18:20:00,
2013-03-13 14:25:00,38.5,21.5,29.92,SSW,210,4.0,11.0,50,0.00,,---,0.00,VWS V14.01,2013-03-13 18:25:00,
2013-03-13 14:30:00,38.8,22.7,29.92,North,355,1.0,11.0,52,0.00,,---,0.00,VWS V14.01,2013-03-13 18:30:00,
2013-03-13 14:35:00,38.5,21.5,29.92,NNW,335,1.0,6.0,50,0.00,,---,0.00,VWS V14.01,2013-03-13 18:35:00,
2013-03-13 14:40:00,37.3,19.9,29.92,North,355,7.0,9.0,49,0.00,,---,0.00,VWS V14.01,2013-03-13 18:40:00,
2013-03-13 14:45:00,36.6,21.1,29.92,SE,129,1.0,6.0,53,0.00,,---,0.00,VWS V14.01,2013-03-13 18:45:00,
2013-03-13 14:50:00,36.5,21.5,29.92,SE,140,3.0,8.0,54,0.00,,---,0.00,VWS V14.01,2013-03-13 18:50:00,
2013-03-13 14:55:00,35.6,21.9,29.92,North,5,8.0,12.0,57,0.00,,---,0.00,VWS V14.01,2013-03-13 18:55:00,
2013-03-13 15:00:00,35.0,22.5,29.93,NW,325,4.0,12.0,60,0.00,,---,0.00,VWS V14.01,2013-03-13 19:00:00,
2013-03-13 15:05:00,35.0,22.9,29.92,SSE,161,3.0,12.0,61,0.00,,---,0.00,VWS V14.01,2013-03-13 19:05:00,
2013-03-13 15:10:00,34.8,25.0,29.92,NE,42,5.0,12.0,67,0.00,,---,0.00,VWS V14.01,2013-03-13 19:10:00,
2013-03-13 15:15:00,33.7,26.0,29.93,NNE,13,4.0,11.0,73,0.00,,---,0.00,VWS V14.01,2013-03-13 19:15:00,
2013-03-13 15:21:00,33.0,26.6,29.93,NW,317,4.0,11.0,77,0.00,,---,0.00,VWS V14.01,2013-03-13 19:21:00,
2013-03-13 15:26:00,32.3,26.8,29.93,North,355,5.0,8.0,80,0.00,,---,0.00,VWS V14.01,2013-03-13 19:26:00,
2013-03-13 15:31:00,32.4,26.9,29.94,North,9,4.0,9.0,80,0.00,,---,0.00,VWS V14.01,2013-03-13 19:31:00,
2013-03-13 15:36:00,33.1,27.0,29.93,NNW,342,2.0,9.0,78,0.00,,---,0.00,VWS V14.01,2013-03-13 19:36:00,
2013-03-13 15:41:00,33.4,26.0,29.93,North,355,7.0,7.0,74,0.00,,---,0.00,VWS V14.01,2013-03-13 19:41:00,
2013-03-13 15:47:00,34.1,25.7,29.93,NNW,340,2.0,7.0,71,0.00,,---,0.00,VWS V14.01,2013-03-13 19:47:00,
2013-03-13 15:52:00,34.9,26.1,29.93,South,186,4.0,10.0,70,0.00,,---,0.00,VWS V14.01,2013-03-13 19:52:00,
2013-03-13 15:57:00,35.5,25.3,29.93,West,259,7.0,10.0,66,0.00,,---,0.00,VWS V14.01,2013-03-13 19:57:00,
2013-03-13 16:02:00,35.5,24.2,29.93,SW,223,6.0,12.0,63,0.00,,---,0.00,VWS V14.01,2013-03-13 20:02:00,
2013-03-13 16:07:00,34.7,23.4,29.93,WNW,290,3.0,12.0,63,0.00,,---,0.00,VWS V14.01,2013-03-13 20:07:00,
2013-03-13 16:12:00,35.1,24.5,29.93,WSW,244,3.0,6.0,65,0.00,,---,0.00,VWS V14.01,2013-03-13 20:12:00,
2013-03-13 16:17:00,35.3,25.1,29.93,SW,220,3.0,7.0,66,0.00,,---,0.00,VWS V14.01,2013-03-13 20:17:00,
2013-03-13 16:22:00,35.1,24.9,29.93,NNE,13,6.0,7.0,66,0.00,,---,0.00,VWS V14.01,2013-03-13 20:22:00,
2013-03-13 16:27:00,34.5,24.0,29.93,South,187,2.0,9.0,65,0.00,,---,0.00,VWS V14.01,2013-03-13 20:27:00,
2013-03-13 16:32:00,33.6,23.5,29.93,ENE,77,3.0,14.0,66,0.00,,---,0.00,VWS V14.01,2013-03-13 20:32:00,
2013-03-13 16:37:00,31.8,23.5,29.94,NNW,347,3.0,21.0,71,0.00,,---,0.00,VWS V14.01,2013-03-13 20:37:00,
2013-03-13 16:42:00,31.2,23.9,29.94,North,355,11.0,13.0,74,0.00,,---,0.00,VWS V14.01,2013-03-13 20:42:00,
2013-03-13 16:47:00,30.5,23.9,29.95,NNW,348,6.0,17.0,76,0.00,,---,0.00,VWS V14.01,2013-03-13 20:47:00,
2013-03-13 16:52:00,30.3,24.0,29.95,NW,315,11.0,11.0,77,0.00,,---,0.00,VWS V14.01,2013-03-13 20:52:00,
2013-03-13 16:58:00,30.5,23.9,29.95,NNE,14,3.0,11.0,76,0.00,,---,0.00,VWS V14.01,2013-03-13 20:58:00,
2013-03-13 17:03:00,31.0,24.0,29.96,NW,304,5.0,14.0,75,0.00,,---,0.00,VWS V14.01,2013-03-13 21:03:00,
2013-03-13 17:08:00,31.3,24.0,29.95,NNW,347,6.0,14.0,74,0.00,,---,0.00,VWS V14.01,2013-03-13 21:08:00,
2013-03-13 17:13:00,31.5,23.5,29.95,NNE,18,7.0,10.0,72,0.00,,---,0.00,VWS V14.01,2013-03-13 21:13:00,
2013-03-13 17:18:00,31.6,23.3,29.96,North,360,8.0,11.0,71,0.00,,---,0.00,VWS V14.01,2013-03-13 21:18:00,
2013-03-13 17:23:00,31.5,23.5,29.96,SW,234,5.0,6.0,72,0.00,,---,0.00,VWS V14.01,2013-03-13 21:23:00,
2013-03-13 17:28:00,31.6,23.6,29.96,North,355,0.0,6.0,72,0.00,,---,0.00,VWS V14.01,2013-03-13 21:28:00,
2013-03-13 17:33:00,31.7,23.7,29.96,NNW,348,3.0,6.0,72,0.00,,---,0.00,VWS V14.01,2013-03-13 21:33:00,
2013-03-13 17:38:00,31.5,24.5,29.96,NE,38,2.0,7.0,75,0.00,,---,0.00,VWS V14.01,2013-03-13 21:38:00,
2013-03-13 17:43:00,30.3,25.5,29.96,NE,46,5.0,8.0,82,0.00,,---,0.00,VWS V14.01,2013-03-13 21:43:00,
2013-03-13 17:48:00,29.0,25.4,29.97,North,5,5.0,10.0,86,0.00,,---,0.00,VWS V14.01,2013-03-13 21:48:00,
2013-03-13 17:53:00,28.5,25.7,29.97,North,355,4.0,10.0,89,0.00,,---,0.00,VWS V14.01,2013-03-13 21:53:00,
2013-03-13 17:58:00,28.5,25.1,29.96,NW,319,9.0,10.0,87,0.00,,---,0.00,VWS V14.01,2013-03-13 21:58:00,
2013-03-13 18:03:00,28.9,24.4,29.97,North,11,8.0,14.0,83,0.00,,---,0.00,VWS V14.01,2013-03-13 22:03:00,
2013-03-13 18:08:00,29.2,23.8,29.97,NW,315,12.0,14.0,80,0.00,,---,0.00,VWS V14.01,2013-03-13 22:08:00,
2013-03-13 18:13:00,29.4,23.4,29.97,ESE,105,7.0,13.0,78,0.00,,---,0.00,VWS V14.01,2013-03-13 22:13:00,
2013-03-13 18:19:00,29.9,23.9,29.97,NW,309,10.0,13.0,78,0.00,,---,0.00,VWS V14.01,2013-03-13 22:19:00,
2013-03-13 18:24:00,30.0,23.7,29.97,NNW,328,7.0,11.0,77,0.00,,---,0.00,VWS V14.01,2013-03-13 22:24:00,
2013-03-13 18:29:00,29.5,23.2,29.97,NNW,329,5.0,14.0,77,0.00,,---,0.00,VWS V14.01,2013-03-13 22:29:00,
2013-03-13 18:34:00,29.0,23.0,29.97,NE,38,4.0,9.0,78,0.00,,---,0.00,VWS V14.01,2013-03-13 22:34:00,
2013-03-13 18:39:00,28.6,22.6,29.96,North,355,16.0,17.0,78,0.00,,---,0.00,VWS V14.01,2013-03-13 22:39:00,
2013-03-13 18:44:00,28.4,20.9,29.97,North,350,11.0,17.0,73,0.00,,---,0.00,VWS V14.01,2013-03-13 22:44:00,
2013-03-13 18:49:00,28.2,21.0,29.98,NNW,329,11.0,21.0,74,0.00,,---,0.00,VWS V14.01,2013-03-13 22:49:00,
2013-03-13 18:54:00,28.1,20.9,29.98,NW,312,10.0,16.0,74,0.00,,---,0.00,VWS V14.01,2013-03-13 22:54:00,
2013-03-13 18:59:00,28.0,21.1,29.98,NNW,340,11.0,16.0,75,0.00,,---,0.00,VWS V14.01,2013-03-13 22:59:00,
2013-03-13 19:04:00,27.7,21.1,29.97,NNW,340,10.0,13.0,76,0.00,,---,0.00,VWS V14.01,2013-03-13 23:04:00,
2013-03-13 19:09:00,27.4,21.1,29.98,NNW,341,10.0,13.0,77,0.00,,---,0.00,VWS V14.01,2013-03-13 23:09:00,
2013-03-13 19:15:00,27.3,21.1,29.98,NNW,346,8.0,12.0,77,0.00,,---,0.00,VWS V14.01,2013-03-13 23:15:00,
2013-03-13 19:20:00,27.2,20.0,29.98,NNW,331,8.0,13.0,74,0.00,,---,0.00,VWS V14.01,2013-03-13 23:20:00,
2013-03-13 19:25:00,27.2,19.7,29.99,NNW,332,7.0,13.0,73,0.00,,---,0.00,VWS V14.01,2013-03-13 23:25:00,
2013-03-13 19:30:00,27.1,19.6,29.99,NNE,28,4.0,13.0,73,0.00,,---,0.00,VWS V14.01,2013-03-13 23:30:00,
2013-03-13 19:35:00,27.1,19.3,29.99,NNW,347,9.0,11.0,72,0.00,,---,0.00,VWS V14.01,2013-03-13 23:35:00,
2013-03-13 19:40:00,27.1,19.3,29.99,NNW,345,4.0,11.0,72,0.00,,---,0.00,VWS V14.01,2013-03-13 23:40:00,
2013-03-13 19:45:00,27.0,19.2,29.99,West,279,13.0,17.0,72,0.00,,---,0.00,VWS V14.01,2013-03-13 23:45:00,
2013-03-13 19:50:00,26.9,19.1,30.00,NNW,333,6.0,17.0,72,0.00,,---,0.00,VWS V14.01,2013-03-13 23:50:00,
2013-03-13 19:55:00,26.9,19.4,30.00,NE,46,1.0,13.0,73,0.00,,---,0.00,VWS V14.01,2013-03-13 23:55:00,
2013-03-13 20:00:00,26.7,19.5,30.01,NE,47,3.0,13.0,74,0.00,,---,0.00,VWS V14.01,2013-03-14 00:00:00,
2013-03-13 20:05:00,26.7,19.9,30.01,East,96,1.0,11.0,75,0.00,,---,0.00,VWS V14.01,2013-03-14 00:05:00,
2013-03-13 20:10:00,26.6,20.4,30.01,North,360,3.0,11.0,77,0.00,,---,0.00,VWS V14.01,2013-03-14 00:10:00,
2013-03-13 20:15:00,26.2,20.6,30.01,North,5,3.0,12.0,79,0.00,,---,0.00,VWS V14.01,2013-03-14 00:15:00,
2013-03-13 20:20:00,25.7,20.7,30.01,NNW,346,7.0,13.0,81,0.00,,---,0.00,VWS V14.01,2013-03-14 00:20:00,
2013-03-13 20:25:00,25.5,20.2,30.01,North,5,6.0,22.0,80,0.00,,---,0.00,VWS V14.01,2013-03-14 00:25:00,
2013-03-13 20:30:00,25.5,20.2,30.01,NNW,344,8.0,22.0,80,0.00,,---,0.00,VWS V14.01,2013-03-14 00:30:00,
2013-03-13 20:35:00,25.5,19.9,30.00,North,355,9.0,16.0,79,0.00,,---,0.00,VWS V14.01,2013-03-14 00:35:00,
2013-03-13 20:40:00,25.5,19.3,30.00,NNW,331,11.0,16.0,77,0.00,,---,0.00,VWS V14.01,2013-03-14 00:40:00,
2013-03-13 20:45:00,25.4,19.2,30.01,North,10,7.0,15.0,77,0.00,,---,0.00,VWS V14.01,2013-03-14 00:45:00,
2013-03-13 20:50:00,25.4,19.2,30.01,NNE,20,7.0,15.0,77,0.00,,---,0.00,VWS V14.01,2013-03-14 00:50:00,
2013-03-13 20:55:00,25.3,18.8,30.01,North,5,9.0,14.0,76,0.00,,---,0.00,VWS V14.01,2013-03-14 00:55:00,
2013-03-13 21:00:00,25.4,18.9,30.01,North,5,6.0,16.0,76,0.00,,---,0.00,VWS V14.01,2013-03-14 01:00:00,
2013-03-13 21:05:00,25.4,18.9,30.02,NNW,348,5.0,9.0,76,0.00,,---,0.00,VWS V14.01,2013-03-14 01:05:00,
2013-03-13 21:10:00,25.4,19.2,30.02,North,355,5.0,10.0,77,0.00,,---,0.00,VWS V14.01,2013-03-14 01:10:00,
2013-03-13 21:16:00,25.4,19.5,30.02,East,83,3.0,11.0,78,0.00,,---,0.00,VWS V14.01,2013-03-14 01:16:00,
2013-03-13 21:21:00,25.2,20.2,30.02,North,355,7.0,11.0,81,0.00,,---,0.00,VWS V14.01,2013-03-14 01:21:00,
2013-03-13 21:26:00,24.9,20.5,30.02,NNW,332,7.0,11.0,83,0.00,,---,0.00,VWS V14.01,2013-03-14 01:26:00,
2013-03-13 21:31:00,24.6,20.5,30.03,NNW,346,5.0,11.0,84,0.00,,---,0.00,VWS V14.01,2013-03-14 01:31:00,
2013-03-13 21:36:00,24.4,20.5,30.02,NNE,19,3.0,11.0,85,0.00,,---,0.00,VWS V14.01,2013-03-14 01:36:00,
2013-03-13 21:42:00,24.5,20.4,30.01,East,79,5.0,7.0,84,0.00,,---,0.00,VWS V14.01,2013-03-14 01:42:00,
2013-03-13 21:47:00,24.4,20.0,30.02,North,355,6.0,12.0,83,0.00,,---,0.00,VWS V14.01,2013-03-14 01:47:00,
2013-03-13 21:52:00,24.5,20.1,30.02,NNW,345,9.0,12.0,83,0.00,,---,0.00,VWS V14.01,2013-03-14 01:52:00,
2013-03-13 21:57:00,24.5,19.8,30.02,NE,46,3.0,12.0,82,0.00,,---,0.00,VWS V14.01,2013-03-14 01:57:00,
2013-03-13 22:02:00,24.6,19.9,30.02,North,355,9.0,13.0,82,0.00,,---,0.00,VWS V14.01,2013-03-14 02:02:00,
2013-03-13 22:07:00,24.7,19.4,30.02,NNW,328,7.0,16.0,80,0.00,,---,0.00,VWS V14.01,2013-03-14 02:07:00,
2013-03-13 22:12:00,24.8,19.2,30.02,NNE,23,5.0,13.0,79,0.00,,---,0.00,VWS V14.01,2013-03-14 02:12:00,
2013-03-13 22:17:00,24.8,18.9,30.02,NNW,341,10.0,16.0,78,0.00,,---,0.00,VWS V14.01,2013-03-14 02:17:00,
2013-03-13 22:22:00,24.9,18.7,30.02,NW,315,11.0,11.0,77,0.00,,---,0.00,VWS V14.01,2013-03-14 02:22:00,
2013-03-13 22:27:00,24.8,18.6,30.02,NNW,328,13.0,13.0,77,0.00,,---,0.00,VWS V14.01,2013-03-14 02:27:00,
2013-03-13 22:32:00,24.8,18.3,30.02,North,360,8.0,15.0,76,0.00,,---,0.00,VWS V14.01,2013-03-14 02:32:00,
2013-03-13 22:38:00,24.9,18.4,30.02,NNE,20,6.0,16.0,76,0.00,,---,0.00,VWS V14.01,2013-03-14 02:38:00,
2013-03-13 22:43:00,24.9,18.4,30.03,North,5,5.0,9.0,76,0.00,,---,0.00,VWS V14.01,2013-03-14 02:43:00,
2013-03-13 22:48:00,24.9,18.4,30.03,NNW,340,7.0,11.0,76,0.00,,---,0.00,VWS V14.01,2013-03-14 02:48:00,
2013-03-13 22:53:00,24.9,18.4,30.03,North,5,10.0,16.0,76,0.00,,---,0.00,VWS V14.01,2013-03-14 02:53:00,
2013-03-13 22:58:00,24.8,18.6,30.03,NNE,20,6.0,16.0,77,0.00,,---,0.00,VWS V14.01,2013-03-14 02:58:00,
2013-03-13 23:03:00,24.8,18.6,30.02,NNE,14,11.0,12.0,77,0.00,,---,0.00,VWS V14.01,2013-03-14 03:03:00,
2013-03-13 23:08:00,24.7,18.8,30.03,North,5,6.0,12.0,78,0.00,,---,0.00,VWS V14.01,2013-03-14 03:08:00,
2013-03-13 23:13:00,24.7,18.8,30.03,NNW,330,9.0,11.0,78,0.00,,---,0.00,VWS V14.01,2013-03-14 03:13:00,
2013-03-13 23:18:00,24.7,18.5,30.03,NNW,340,8.0,12.0,77,0.00,,---,0.00,VWS V14.01,2013-03-14 03:18:00,
2013-03-13 23:23:00,24.7,18.5,30.03,NE,47,7.0,10.0,77,0.00,,---,0.00,VWS V14.01,2013-03-14 03:23:00,
2013-03-13 23:28:00,24.6,18.7,30.03,NNW,344,10.0,12.0,78,0.00,,---,0.00,VWS V14.01,2013-03-14 03:28:00,
2013-03-13 23:33:00,24.6,18.1,30.03,NNW,346,10.0,13.0,76,0.00,,---,0.00,VWS V14.01,2013-03-14 03:33:00,
2013-03-13 23:38:00,24.6,17.8,30.03,East,84,2.0,15.0,75,0.00,,---,0.00,VWS V14.01,2013-03-14 03:38:00,
2013-03-13 23:43:00,24.6,17.2,30.03,North,5,8.0,15.0,73,0.00,,---,0.00,VWS V14.01,2013-03-14 03:43:00,
2013-03-13 23:48:00,24.6,16.2,30.04,WNW,288,5.0,16.0,70,0.00,,---,0.00,VWS V14.01,2013-03-14 03:48:00,
2013-03-13 23:53:00,24.6,15.9,30.04,North,355,8.0,12.0,69,0.00,,---,0.00,VWS V14.01,2013-03-14 03:53:00,
2013-03-13 23:59:00,24.5,16.1,30.04,NNW,329,7.0,12.0,70,0.00,,---,0.00,VWS V14.01,2013-03-14 03:59:00,